{"data":{"norad_id":53730,"intl_designator":"2022-107AG","name":"STARLINK-4641","alt_names":[],"object_type":"PAYLOAD","status":"ACTIVE","operator":null,"country":"US","launch_date":"2022-09-05","launch_site_code":"AFETR","launch_vehicle":null,"mission":null,"orbit_class":"UNKNOWN","rcs_meters":null,"size_class":null,"mass_kg":null,"dimensions":null,"purposes":["comms"],"wikipedia_slug":null,"has_3d_model":false,"image_url":null,"decayed_at":null,"tle_current":{"epoch":"2026-09-20T21:37:46.740288Z","epoch_age_seconds":46854,"freshness":"FRESH","line1":"1 53730U 22107AG  26263.90123542  .00000466  00000+0  24926-4 0  9997","line2":"2 53730  53.1598  81.7039 0001197  82.0220 278.0919 15.34393894224240","mean_motion":15.34393894,"eccentricity":0.0001197,"inclination_deg":53.1598,"raan_deg":81.7039,"arg_perigee_deg":82.022,"mean_anomaly_deg":278.0919,"bstar":2.4926e-5,"rev_number":22424,"period_min":93.848131541118,"perigee_km":461.90253783696,"apogee_km":463.54023933518,"semimajor_km":6840.8583885861,"source":"CELESTRAK","updated_at":"2026-09-21T09:00:32.987436Z"}}}